Deer Park, WA

6:45 PM PST on December 10, 2016 (GMT -0800)
Deer Park

Weather History for KDEW - January, 2013

Change the Weather History Date:

Thursday, January 17, 2013

  Actual Average Record
Temperature  
Mean Temperature 15 °F 28 °F  
Max Temperature 23 °F 34 °F 43 °F (2011)
Min Temperature 6 °F 22 °F 6 °F (2013)
Degree Days  
Heating Degree Days 50 37  
Month to date heating degree days 735 657  
Since 1 July heating degree days 3528 3884  
Cooling Degree Days 0 0  
Month to date cooling degree days 0 0  
Year to date cooling degree days 0 0  
Moisture  
Dew Point 15 °F    
Average Humidity 92    
Maximum Humidity 100    
Minimum Humidity 84    
Precipitation  
Precipitation 0.00 in 0.08 in 0.58 in (2005)
Month to date precipitation 1.11 1.66  
Year to date precipitation 1.11 1.66  
Sea Level Pressure  
Sea Level Pressure 30.51 in    
Wind  
Wind Speed 1 mph (WSW)    
Max Wind Speed 6 mph    
Max Gust Speed 6 mph    
Visibility 2 miles    
Events Fog    
T = Trace of Precipitation, MM = Missing Value Source: NWS Daily Summary

Daily Weather History Graph

Daily Weather History Graph

Search for Another Location

Airport or City:

Trip Planner

Search our weather history database for the weather conditions in past years. The results will help you decide how hot, cold, wet, or windy it might be!

Date:

Astronomy

Jan. 17, 2013 Rise Set
Actual Time 7:32 AM PST 4:27 PM PST
Civil Twilight 6:57 AM PST 5:02 PM PST
Nautical Twilight 6:19 AM PST 5:40 PM PST
Astronomical Twilight 5:42 AM PST 6:17 PM PST
Moon 10:08 AM PST (1/17) 11:59 PM PST (1/17)
Length of Visible Light 10h 04m
Length of Day
8h 54m
Waxing Crescent, 39% of the Moon is Illuminated
Jan 17
Waxing Crescent
Jan 18
First Quarter
Jan 26
Full
Feb 3
Last Quarter
Feb 9
New

Hourly Weather History & Observations

Time (PST) Temp. Windchill Dew Point Humidity Pressure Visibility Wind Dir Wind Speed Gust Speed Precip Events Conditions
12:14 AM 10.4 °F - 6.8 °F 85% 30.51 in 2.0 mi Calm Calm - N/A   Partly Cloudy
12:16 AM 10.4 °F - 6.8 °F 85% 30.51 in 1.0 mi Calm Calm - N/A   Mist
12:23 AM 8.6 °F - 5.0 °F 85% 30.51 in 0.5 mi Calm Calm - N/A Fog Light Freezing Fog
12:50 AM 8.6 °F - 6.8 °F 92% 30.51 in 2.0 mi Calm Calm - N/A   Mostly Cloudy
12:53 AM 9.0 °F - 7.0 °F 92% 30.61 in 3.0 mi Calm Calm - N/A   Scattered Clouds
1:08 AM 8.6 °F - 5.0 °F 85% 30.51 in 7.0 mi Calm Calm - N/A   Mostly Cloudy
1:28 AM 6.8 °F - 5.0 °F 92% 30.51 in 1.8 mi Calm Calm - N/A   Mostly Cloudy
1:36 AM 10.4 °F - 8.6 °F 92% 30.51 in 0.5 mi Calm Calm - N/A Fog Light Freezing Fog
1:40 AM 10.4 °F - 6.8 °F 85% 30.51 in 2.0 mi Calm Calm - N/A   Overcast
1:53 AM 9.0 °F - 6.1 °F 88% 30.62 in 0.2 mi Calm Calm - N/A Fog Light Freezing Fog
2:53 AM 10.9 °F - 9.0 °F 92% 30.62 in 0.8 mi Calm Calm - N/A   Overcast
2:58 AM 10.4 °F - 8.6 °F 92% 30.51 in 2.0 mi Calm Calm - N/A   Overcast
3:10 AM 12.2 °F - 10.4 °F 92% 30.51 in 1.8 mi Calm Calm - N/A   Overcast
3:13 AM 12.2 °F 6.1 °F 10.4 °F 92% 30.51 in 3.0 mi WNW 3.5 mph - N/A   Overcast
4:53 AM 17.1 °F 11.7 °F 15.1 °F 92% 30.61 in 5.0 mi WNW 3.5 mph - N/A   Overcast
5:22 AM 15.8 °F 10.2 °F 15.8 °F 100% 30.50 in 2.0 mi WNW 3.5 mph - N/A   Overcast
5:30 AM 17.6 °F - 15.8 °F 93% 30.50 in 1.5 mi Calm Calm - N/A   Overcast
5:45 AM 17.6 °F - 15.8 °F 93% 30.50 in 0.8 mi Calm Calm - N/A   Mist
5:53 AM 17.1 °F - 14.0 °F 88% 30.61 in 0.8 mi Calm Calm - N/A   Mist
6:53 AM 18.0 °F - 17.1 °F 96% 30.61 in 1.0 mi Calm Calm - N/A   Mist
7:17 AM 17.6 °F - 15.8 °F 93% 30.50 in 0.5 mi Calm Calm - N/A Fog Light Freezing Fog
7:53 AM 19.0 °F - 18.0 °F 96% 30.63 in 0.2 mi Calm Calm - N/A Fog Light Freezing Fog
8:53 AM 19.0 °F 13.9 °F 17.1 °F 92% 30.63 in 0.2 mi WSW 3.5 mph - N/A Fog Light Freezing Fog
9:53 AM 19.0 °F - 19.0 °F 100% 30.65 in 0.2 mi Calm Calm - N/A Fog Light Freezing Fog
10:31 AM 19.4 °F - 19.4 °F 100% 30.52 in 1.2 mi Calm Calm - N/A   Overcast
10:44 AM 19.4 °F - 19.4 °F 100% 30.51 in 2.0 mi Calm Calm - N/A   Overcast
10:53 AM 19.9 °F - 19.0 °F 96% 30.63 in 3.0 mi Calm Calm - N/A   Overcast
11:08 AM 19.4 °F - 19.4 °F 100% 30.50 in 2.0 mi Calm Calm - N/A   Overcast
11:19 AM 21.2 °F - 19.4 °F 93% 30.50 in 1.5 mi Calm Calm - N/A   Overcast
11:37 AM 21.2 °F - 21.2 °F 100% 30.49 in 2.0 mi Calm Calm - N/A   Overcast
11:53 AM 21.0 °F - 19.9 °F 96% 30.61 in 1.2 mi Calm Calm - N/A   Overcast
12:09 PM 21.2 °F 16.4 °F 21.2 °F 100% 30.47 in 0.5 mi SSW 3.5 mph - N/A Fog Light Freezing Fog
12:53 PM 21.0 °F - 21.0 °F 100% 30.58 in 0.5 mi Calm Calm - N/A Fog Light Freezing Fog
1:53 PM 21.9 °F - 21.9 °F 100% 30.55 in 0.8 mi Calm Calm - N/A   Mist
2:53 PM 21.9 °F - 21.9 °F 100% 30.54 in 0.2 mi Calm Calm - N/A Fog Light Freezing Fog
3:53 PM 21.9 °F 17.2 °F 21.0 °F 96% 30.51 in 0.2 mi South 3.5 mph - N/A Fog Light Freezing Fog
4:53 PM 21.0 °F - 19.0 °F 92% 30.52 in 0.2 mi Calm Calm - N/A Fog Light Freezing Fog
5:53 PM 19.9 °F 14.9 °F 18.0 °F 92% 30.51 in 0.2 mi West 3.5 mph - N/A Fog Light Freezing Fog
6:53 PM 19.0 °F 13.9 °F 18.0 °F 96% 30.48 in 0.5 mi SSE 3.5 mph - N/A Fog Light Freezing Fog
7:53 PM 18.0 °F - 17.1 °F 96% 30.48 in 0.5 mi Calm Calm - N/A Fog Light Freezing Fog
8:24 PM 17.6 °F 12.3 °F 15.8 °F 93% 30.37 in 2.0 mi NNE 3.5 mph - N/A   Overcast
8:31 PM 17.6 °F - 15.8 °F 93% 30.37 in 6.0 mi Calm Calm - N/A   Overcast
8:53 PM 18.0 °F - 16.0 °F 92% 30.47 in 5.0 mi Calm Calm - N/A   Overcast
9:07 PM 17.6 °F - 15.8 °F 93% 30.36 in 1.8 mi Calm Calm - N/A   Overcast
9:15 PM 17.6 °F - 15.8 °F 93% 30.36 in 0.2 mi Calm Calm - N/A Fog Light Freezing Fog
9:53 PM 18.0 °F - 16.0 °F 92% 30.45 in 0.2 mi Calm Calm - N/A Fog Light Freezing Fog
10:53 PM 18.0 °F - 17.1 °F 96% 30.45 in 0.5 mi Calm Calm - N/A Fog Light Freezing Fog
11:23 PM 17.6 °F - 15.8 °F 93% 30.34 in 2.0 mi Calm Calm - N/A   Overcast
11:31 PM 17.6 °F - 15.8 °F 93% 30.34 in 3.0 mi Calm Calm - N/A   Overcast
11:53 PM 18.0 °F - 16.0 °F 92% 30.44 in 2.0 mi Calm Calm - N/A   Overcast